Weather History for KVYS - April, 2014

Change the Weather History Date:

Sunday, April 27, 2014

  Actual Average Record
Temperature  
Mean Temperature 54 °F -  
Max Temperature 66 °F 68 °F 85 °F (1977)
Min Temperature 42 °F 42 °F 29 °F (1976)
Degree Days  
Heating Degree Days 11    
Growing Degree Days 4 (Base 50)    
Moisture  
Dew Point 42 °F    
Average Humidity 67    
Maximum Humidity 85    
Minimum Humidity 40    
Precipitation  
Precipitation 0.33 in - - ()
Sea Level Pressure  
Sea Level Pressure 29.83 in    
Wind  
Wind Speed 18 mph (East)    
Max Wind Speed 28 mph    
Max Gust Speed 37 mph    
Visibility 10 miles    
Events Rain , Thunderstorm    
Averages and records for this station are not official NWS values.
T = Trace of Precipitation, MM = Missing Value Source: NWS Daily Summary

Daily Weather History Graph

Daily Weather History Graph

Search for Another Location

Airport or City:

Trip Planner

Search our weather history database for the weather conditions in past years. The results will help you decide how hot, cold, wet, or windy it might be!

Date:

Astronomy

Apr. 27, 2014 Rise Set
Actual Time 5:59 AM CDT 7:49 PM CDT
Civil Twilight 5:29 AM CDT 8:19 PM CDT
Nautical Twilight 4:53 AM CDT 8:55 PM CDT
Astronomical Twilight 4:14 AM CDT 9:34 PM CDT
Moon 5:01 AM CDT (4/27) 6:22 PM CDT (4/27)
Length of Visible Light 14h 49m
Length of Day
13h 50m
Waning Crescent, 3% of the Moon is Illuminated
Apr 27
Waning Crescent
Apr 29
New
May 6
First Quarter
May 14
Full
May 21
Last Quarter

Hourly Weather History & Observations

Time (CDT) Temp. Windchill Dew Point Humidity Pressure Visibility Wind Dir Wind Speed Gust Speed Precip Events Conditions
12:15 AM 42.1 °F 33.3 °F 33.1 °F 70% 29.94 in 10.0 mi ENE 19.6 mph - N/A   Mostly Cloudy
12:35 AM 42.3 °F 34.8 °F 33.4 °F 71% 29.96 in 10.0 mi East 15.0 mph 21.9 mph N/A   Overcast
12:55 AM 42.1 °F 34.9 °F 34.5 °F 75% 29.95 in 10.0 mi East 13.8 mph 23.0 mph N/A   Light Drizzle
1:15 AM 42.3 °F 35.1 °F 34.3 °F 74% 29.95 in 10.0 mi East 13.8 mph - N/A   Scattered Clouds
1:35 AM 42.8 °F 35.4 °F 34.7 °F 73% 29.94 in 10.0 mi East 15.0 mph 18.4 mph N/A   Clear
1:55 AM 43.0 °F 36.4 °F 34.7 °F 73% 29.96 in 10.0 mi ENE 12.7 mph - N/A   Scattered Clouds
2:15 AM 43.3 °F 38.6 °F 35.1 °F 73% 29.98 in 10.0 mi ENE 8.1 mph - N/A   Overcast
2:35 AM 43.0 °F 35.1 °F 36.1 °F 77% 29.95 in 10.0 mi ENE 17.3 mph - N/A Rain Light Rain
2:55 AM 43.0 °F 34.8 °F 36.3 °F 77% 29.95 in 10.0 mi ENE 18.4 mph 24.2 mph N/A Rain Light Rain
3:15 AM 43.2 °F 34.7 °F 37.0 °F 79% 29.93 in 10.0 mi ENE 19.6 mph 24.2 mph N/A Rain Light Rain
3:35 AM 43.7 °F 36.0 °F 37.4 °F 78% 29.94 in 10.0 mi East 17.3 mph 21.9 mph N/A   Light Drizzle
3:55 AM 44.6 °F 38.1 °F 38.3 °F 79% 29.95 in 10.0 mi East 13.8 mph - N/A   Overcast
4:15 AM 44.6 °F 37.4 °F 38.7 °F 80% 29.94 in 10.0 mi East 16.1 mph 20.7 mph N/A   Overcast
4:35 AM 45.0 °F 37.4 °F 38.8 °F 79% 29.93 in 10.0 mi East 18.4 mph - N/A   Overcast
4:55 AM 45.1 °F 37.1 °F 39.2 °F 80% 29.91 in 10.0 mi East 20.7 mph 28.8 mph N/A   Overcast
5:15 AM 46.0 °F 39.3 °F 39.6 °F 78% 29.91 in 10.0 mi East 16.1 mph 24.2 mph N/A   Overcast
5:35 AM 46.9 °F - 39.2 °F 74% 29.91 in 10.0 mi East 17.3 mph 25.3 mph N/A   Overcast
5:55 AM 47.3 °F - 38.8 °F 72% 29.94 in 10.0 mi East 16.1 mph 25.3 mph N/A   Scattered Clouds
6:15 AM 46.6 °F - 39.0 °F 75% 29.90 in 10.0 mi East 24.2 mph 28.8 mph N/A Rain Light Rain
6:35 AM 46.4 °F 37.9 °F 38.8 °F 75% 29.86 in 10.0 mi East 25.3 mph 35.7 mph 0.01 in   Scattered Clouds
6:55 AM 46.9 °F - 38.8 °F 73% 29.89 in 10.0 mi ESE 12.7 mph 26.5 mph 0.01 in   Clear
7:15 AM 47.3 °F - 38.8 °F 72% 29.89 in 10.0 mi East 18.4 mph - N/A   Clear
7:35 AM 47.8 °F - 38.7 °F 70% 29.91 in 10.0 mi East 15.0 mph 21.9 mph N/A   Clear
7:55 AM 47.8 °F - 37.6 °F 68% 29.89 in 10.0 mi ESE 23.0 mph 34.5 mph N/A   Clear
8:15 AM 47.8 °F - 37.4 °F 67% 29.88 in 10.0 mi ESE 21.9 mph 34.5 mph N/A   Clear
8:35 AM 47.8 °F - 37.0 °F 66% 29.87 in 10.0 mi ESE 23.0 mph 31.1 mph N/A   Scattered Clouds
8:55 AM 48.2 °F - 36.9 °F 65% 29.88 in 10.0 mi ESE 25.3 mph 35.7 mph N/A   Clear
9:15 AM 48.7 °F - 37.4 °F 65% 29.87 in 10.0 mi ESE 25.3 mph 33.4 mph N/A   Mostly Cloudy
9:35 AM 49.3 °F - 37.2 °F 63% 29.84 in 10.0 mi ESE 23.0 mph 35.7 mph N/A   Scattered Clouds
9:55 AM 51.3 °F - 37.9 °F 60% 29.83 in 10.0 mi East 27.6 mph 33.4 mph N/A   Scattered Clouds
10:15 AM 52.7 °F - 38.7 °F 59% 29.83 in 10.0 mi ESE 18.4 mph 36.8 mph N/A   Scattered Clouds
10:35 AM 53.6 °F - 38.5 °F 57% 29.81 in 10.0 mi ESE 27.6 mph 34.5 mph N/A   Clear
10:55 AM 53.6 °F - 37.9 °F 55% 29.82 in 10.0 mi East 21.9 mph 33.4 mph N/A   Mostly Cloudy
11:15 AM 54.3 °F - 38.7 °F 55% 29.82 in 10.0 mi ESE 16.1 mph 29.9 mph N/A   Overcast
11:35 AM 56.5 °F - 39.0 °F 52% 29.82 in 10.0 mi East 20.7 mph 28.8 mph N/A   Scattered Clouds
11:55 AM 59.0 °F - 39.2 °F 48% 29.82 in 10.0 mi East 19.6 mph 33.4 mph N/A   Scattered Clouds
12:15 PM 59.4 °F - 40.1 °F 49% 29.80 in 10.0 mi East 19.6 mph 27.6 mph N/A   Scattered Clouds
12:35 PM 61.5 °F - 40.8 °F 47% 29.80 in 10.0 mi East 15.0 mph 27.6 mph N/A   Scattered Clouds
12:55 PM 63.7 °F - 41.2 °F 44% 29.78 in 10.0 mi East 21.9 mph 29.9 mph N/A   Mostly Cloudy
1:15 PM 65.3 °F - 41.0 °F 41% 29.77 in 10.0 mi East 20.7 mph 32.2 mph N/A   Scattered Clouds
1:35 PM 65.3 °F - 40.5 °F 40% 29.78 in 10.0 mi East 16.1 mph 31.1 mph N/A   Scattered Clouds
1:55 PM 66.6 °F - 41.4 °F 40% 29.75 in 10.0 mi East 23.0 mph 33.4 mph N/A   Mostly Cloudy
2:15 PM 65.8 °F - 42.3 °F 42% 29.74 in 10.0 mi East 21.9 mph 34.5 mph N/A   Mostly Cloudy
2:35 PM 65.7 °F - 42.6 °F 43% 29.73 in 7.0 mi East 21.9 mph 28.8 mph N/A Rain Light Rain
2:55 PM 62.1 °F - 47.1 °F 58% 29.73 in 10.0 mi East 13.8 mph 26.5 mph N/A Rain Light Rain
3:15 PM 63.7 °F - 46.6 °F 54% 29.72 in 10.0 mi East 16.1 mph 21.9 mph N/A Thunderstorm Mostly Cloudy
3:35 PM 64.8 °F - 46.2 °F 51% 29.72 in 10.0 mi East 19.6 mph 23.0 mph N/A   Scattered Clouds
3:55 PM 63.9 °F - 46.0 °F 52% 29.73 in 10.0 mi ESE 11.5 mph 26.5 mph N/A Thunderstorm Clear
4:15 PM 64.4 °F - 45.3 °F 50% 29.75 in 10.0 mi ESE 18.4 mph 26.5 mph N/A Thunderstorm Scattered Clouds
4:35 PM 63.5 °F - 46.2 °F 53% 29.76 in 10.0 mi ESE 20.7 mph 28.8 mph N/A Thunderstorm Mostly Cloudy
4:55 PM 59.0 °F - 50.0 °F 72% 29.76 in 7.0 mi East 15.0 mph 25.3 mph N/A Rain Light Rain
5:15 PM 57.6 °F - 50.7 °F 78% 29.75 in 10.0 mi East 13.8 mph 23.0 mph 0.02 in Rain , Thunderstorm Light Thunderstorms and Rain
5:35 PM 59.9 °F - 50.4 °F 71% 29.78 in 10.0 mi East 10.4 mph 16.1 mph 0.02 in Rain , Thunderstorm Light Thunderstorms and Rain
5:55 PM 58.5 °F - 49.8 °F 73% 29.79 in 10.0 mi East 11.5 mph 16.1 mph 0.04 in Rain , Thunderstorm Rain
6:15 PM 57.4 °F - 51.1 °F 79% 29.80 in 7.0 mi Calm Calm - 0.04 in Rain , Thunderstorm Rain
6:35 PM 56.8 °F - 51.3 °F 82% 29.79 in 5.0 mi East 10.4 mph - 0.10 in Rain , Thunderstorm Thunderstorms and Rain
6:55 PM 56.3 °F - 51.1 °F 83% 29.78 in 3.0 mi East 17.3 mph - 0.23 in Rain Heavy Rain
7:15 PM 56.3 °F - 51.8 °F 85% 29.77 in 7.0 mi East 17.3 mph - 0.05 in Rain , Thunderstorm Light Thunderstorms and Rain
7:35 PM 57.2 °F - 51.8 °F 82% 29.77 in 10.0 mi East 16.1 mph - N/A   Overcast
7:55 PM 57.4 °F - 50.9 °F 79% 29.77 in 10.0 mi East 20.7 mph 26.5 mph 0.05 in Rain Light Rain
8:15 PM 56.3 °F - 50.9 °F 82% 29.76 in 10.0 mi East 21.9 mph 25.3 mph N/A   Overcast
8:35 PM 56.3 °F - 50.4 °F 80% 29.75 in 10.0 mi East 20.7 mph 27.6 mph N/A   Mostly Cloudy
8:55 PM 56.3 °F - 50.2 °F 80% 29.74 in 10.0 mi East 23.0 mph 31.1 mph N/A   Mostly Cloudy
9:15 PM 55.8 °F - 49.5 °F 79% 29.75 in 10.0 mi East 20.7 mph - N/A   Mostly Cloudy
9:35 PM 56.1 °F - 49.3 °F 78% 29.76 in 10.0 mi East 15.0 mph 23.0 mph N/A   Mostly Cloudy
9:55 PM 55.8 °F - 48.4 °F 76% 29.75 in 10.0 mi East 16.1 mph 23.0 mph N/A   Mostly Cloudy
10:15 PM 56.3 °F - 47.8 °F 73% 29.74 in 10.0 mi East 15.0 mph 19.6 mph N/A   Mostly Cloudy
10:35 PM 56.3 °F - 46.9 °F 71% 29.74 in 10.0 mi East 16.1 mph 21.9 mph N/A   Overcast
10:55 PM 56.3 °F - 45.1 °F 66% 29.75 in 10.0 mi East 18.4 mph 26.5 mph N/A   Overcast
11:15 PM 55.2 °F - 45.5 °F 70% 29.75 in 10.0 mi East 16.1 mph - N/A   Overcast
11:35 PM 55.4 °F - 43.9 °F 65% 29.75 in 10.0 mi East 18.4 mph 25.3 mph N/A   Overcast
11:55 PM 54.7 °F - 43.3 °F 66% 29.75 in 10.0 mi East 20.7 mph 27.6 mph N/A   Overcast